Location: Veytaux
(46.4185°N, 6.9320°E)
Time: 09:03:57
(UTC+00:00)

Cosmos 1125 Rocket - Pass Details

Date: 27 May 2022
Orbit: 756 x 780 km, 74.0° (Epoch: 01 July)

Event Time Altitude Azimuth Distance (km) Brightness Sun altitude
Exits shadow 00:43:35 32° 242° (WSW) 1,269 4.2 -20.3°
Maximum altitude 00:45:35 50° 297° (WNW) 965 4.0 -20.2°
Drops below altitude 10° 00:50:39 10° 13° (NNE) 2,299 7.2 -19.9°
Sets 00:53:06 0° 19° (NNE) 3,231 8.4 -19.7°
